Preview of NWS' New Version of Forecast
This preview is not operational and should not be used for support decisions.

Regional Weather Roundup (RWR)

Issued by National Weather Service (NWS)

                            
000
ASUS44 KMEG 200900
RWRTN 
TENNESSEE HOURLY STATE WEATHER ROUNDUP
NATIONAL WEATHER SERVICE MEMPHIS TN
400 AM CDT TUE AUG 20 2019

TNZ002-004-019-021-049-052-054-088>092-201000-
WEST TENNESSEE
  
CITY           SKY/WX    TMP DP  RH WIND       PRES   REMARKS
MEMPHIS INTL   FAIR      78  74  87 SW5       30.04R                  
NWS MEMPHIS      N/A     76 N/A N/A MISG        N/A                   
JACKSON        FAIR      75  74  96 CALM      30.06R                  
DYERSBURG      FAIR      75  74  96 CALM      30.04R FOG              
$$

TNZ008-025-027-028-033-062-065-066-201000-
NORTH MIDDLE TENNESSEE
  
CITY           SKY/WX    TMP DP  RH WIND       PRES   REMARKS
NASHVILLE      FAIR      75  70  84 S5        30.07S                  
CLARKSVILLE    FAIR      75  73  93 CALM      30.05R                  
SMYRNA         FAIR      73  70  90 S7        30.08S                  
CROSSVILLE     FAIR      68  65  90 CALM      30.16R                  
$$

TNZ061-075-076-078-094-096-097-201000-
SOUTH MIDDLE TENNESSEE
  
CITY           SKY/WX    TMP DP  RH WIND       PRES   REMARKS
$$

TNZ017-018-042-046-047-201000-
NORTHEAST TENNESSEE
  
CITY           SKY/WX    TMP DP  RH WIND       PRES   REMARKS
TRI CITIES     FAIR      65  63  93 CALM      30.15R                  
$$

TNZ012-013-036-069-073-074-201000-
CENTRAL EAST TENNESSEE
  
CITY           SKY/WX    TMP DP  RH WIND       PRES   REMARKS
KNOXVILLE      FAIR      70  67  90 CALM      30.11R                  
OAK RIDGE      FAIR      73  68  84 CALM      30.12R                  
$$

TNZ083-085-099-201000-
SOUTHEAST TENNESSEE
  
CITY           SKY/WX    TMP DP  RH WIND       PRES   REMARKS
CHATTANOOGA    FAIR      72  70  93 CALM      30.11R                  
$$

SKY/WX REPORTED AS FAIR MEANS FEW OR NO CLOUDS BELOW
12 THOUSAND FEET.